Regional Weather Roundup
Issued by NWS

Home | Current Version | Previous Version | Graphics & Text | Print | Product List | Glossary On
Versions: 1 2 3 4 5 6 7 8 9 10 11 12 13 14 15 16 17 18 19 20 21 22 23 24 25 26 27 28 29 30 31 32 33 34 35 36 37 38 39 40 41 42 43 44 45 46 47 48 49 50
000
ASUS43 KBIS 291310
RWRND

NORTH DAKOTA REGIONAL WEATHER ROUNDUP
NATIONAL WEATHER SERVICE BISMARCK ND
800 AM CDT TUE JUL 29 2014

NOTE: "FAIR" INDICATES FEW OR NO CLOUDS BELOW 12,000 FEET WITH NO
SIGNIFICANT WEATHER AND/OR OBSTRUCTIONS TO VISIBILITY.


NDZ001>003-009>011-017-291400-
NORTHWEST NORTH DAKOTA

CITY           SKY/WX    TMP DP  RH WIND       PRES   REMARKS
WILLISTON      SUNNY     62  53  72 CALM      30.21R
MINOT          SUNNY     61  55  81 CALM      30.21R
MINOT AFB      SUNNY     60  59  96 CALM      30.21R
$$

NDZ018>021-031>035-040>046-291400-
SOUTHWEST NORTH DAKOTA

CITY           SKY/WX    TMP DP  RH WIND       PRES   REMARKS
BISMARCK       SUNNY     54  51  90 CALM      30.24S FOG
DICKINSON      SUNNY     56  52  86 CALM      30.22S
GARRISON         N/A     62  59  90 CALM      30.22S
HETTINGER ARPT SUNNY     55  50  83 CALM      30.26R
$$

NDZ004>008-012>016-024-026-027-054-291400-
NORTHEAST NORTH DAKOTA

CITY           SKY/WX    TMP DP  RH WIND       PRES   REMARKS
GRAND FORKS    MOSUNNY   59  56  89 W5        30.18R
GRND FRKS AFB  SUNNY     61  60  96 W6        30.19R
DEVILS LAKE    SUNNY     61  54  77 CALM      30.20S
$$

NDZ022-023-025-028>030-036>039-047>053-291400-
SOUTHEAST NORTH DAKOTA

CITY           SKY/WX    TMP DP  RH WIND       PRES   REMARKS
FARGO          SUNNY     58  53  84 CALM      30.19R
JAMESTOWN      SUNNY     59  55  87 NW6       30.21S
$$



USA.gov is the U.S. government's official web portal to all federal, state and local government web resources and services.